Date String (YYYY-MM-DD hh:mm:ss) UTC,Instrument flags,Ambient pressure (hPa),Sample flow (lpm),Bypass flow (lpm),Sample temperature (°C),Ambient temperature (°C),ASC tube jacket temperature (°C),LED temperature (°C),Box temperature (°C),Sample RH (%),Span deviation,Mass concentration (μg/m³),Mass concentration (μg/m³),Mass concentration (μg/m³)
DateTimeUTC,F1_M11,P_M11,Q1_M11,Q2_M11,T1_M11,T2_M11,T3_M11,T4_M11,T5_M11,U1_M11,ZSPAN_M11,X0_M11,X2_M11,X1_M11
2022-05-09 11:00:00,,0809.3,5.00,0.00,26.6,25.7,00.0,35.7,28.3,23.3,0000.0,0010.12,0004.60,0003.46
2022-05-09 11:01:00,,0809.3,5.01,0.00,26.5,25.7,00.0,35.6,28.4,23.4,0000.0,0010.11,0004.59,0003.47
2022-05-09 11:02:00,,0809.3,5.00,0.00,26.5,25.7,00.0,35.6,28.3,24.0,0000.0,0010.13,0004.59,0003.47
2022-05-09 11:03:00,,0809.4,5.00,0.00,26.5,25.6,00.0,35.6,28.3,24.3,0000.0,0010.28,0004.62,0003.48
2022-05-09 11:04:00,,0809.4,5.00,0.00,26.5,25.6,00.0,35.6,28.3,23.5,0000.0,0011.05,0004.61,0003.47
2022-05-09 11:05:00,,0809.4,5.00,0.00,26.5,25.5,00.0,35.6,28.2,23.4,0000.0,0011.37,0004.62,0003.47
2022-05-09 11:06:00,,0809.4,4.99,0.00,26.5,25.5,00.0,35.6,28.2,23.3,0000.0,0010.75,0004.63,0003.46
2022-05-09 11:07:00,,0809.5,5.00,0.00,26.4,25.5,00.0,35.6,28.2,23.2,0000.0,0010.49,0004.62,0003.46
2022-05-09 11:08:00,,0809.4,5.00,0.00,26.4,25.5,00.0,35.5,28.2,23.2,0000.0,0010.28,0004.62,0003.47
2022-05-09 11:09:00,,0809.4,5.01,0.00,26.4,25.4,00.0,35.5,28.2,23.2,0000.0,0010.10,0004.59,0003.48
2022-05-09 11:10:00,,0809.5,5.00,0.00,26.4,25.4,00.0,35.5,28.2,23.2,0000.0,0009.92,0004.56,0003.50
2022-05-09 11:11:00,,0809.5,5.00,0.00,26.4,25.5,00.0,35.5,28.2,23.2,0000.0,0009.83,0004.52,0003.50
2022-05-09 11:12:00,,0809.6,5.00,0.00,26.4,25.5,00.0,35.5,28.2,23.3,0000.0,0009.70,0004.50,0003.51
2022-05-09 11:13:00,,0809.6,4.98,0.00,26.4,25.6,00.0,35.5,28.2,23.3,0000.0,0009.41,0004.47,0003.53
2022-05-09 11:14:00,,0809.6,5.00,0.00,26.4,25.6,00.0,35.5,28.3,23.2,0000.0,0009.14,0004.42,0003.53
2022-05-09 11:15:00,,0809.7,5.00,0.00,26.4,25.7,00.0,35.5,28.3,23.1,0000.0,0008.76,0004.42,0003.54
2022-05-09 11:16:00,,0809.7,4.99,0.00,26.4,25.7,00.0,35.5,28.3,23.1,0000.0,0008.00,0004.42,0003.54
2022-05-09 11:17:00,,0809.7,5.01,0.00,26.4,25.8,00.0,35.5,28.3,23.1,0000.0,0007.85,0004.38,0003.55
2022-05-09 11:18:00,,0809.7,5.00,0.00,26.5,25.8,00.0,35.5,28.3,23.0,0000.0,0007.83,0004.37,0003.55
2022-05-09 11:19:00,,0809.7,4.99,0.00,26.5,25.8,00.0,35.5,28.3,23.0,0000.0,0007.87,0004.38,0003.55
2022-05-09 11:20:00,,0809.7,5.01,0.00,26.5,25.8,00.0,35.5,28.4,23.0,0000.0,0008.02,0004.42,0003.56
2022-05-09 11:21:00,,0809.7,5.01,0.00,26.5,25.9,00.0,35.5,28.4,22.9,0000.0,0008.19,0004.49,0003.58
2022-05-09 11:22:00,,0809.7,5.01,0.00,26.5,25.9,00.0,35.5,28.4,22.9,0000.0,0008.19,0004.51,0003.59
2022-05-09 11:23:00,,0809.7,5.00,0.00,26.5,25.9,00.0,35.5,28.4,22.9,0000.0,0008.29,0004.55,0003.61
2022-05-09 11:24:00,,0809.9,4.99,0.00,26.5,25.9,00.0,35.5,28.4,23.0,0000.0,0008.39,0004.58,0003.61
2022-05-09 11:25:00,,0809.8,5.00,0.00,26.6,25.9,00.0,35.5,28.5,22.9,0000.0,0008.64,0004.64,0003.63
2022-05-09 11:26:00,,0809.9,5.01,0.00,26.6,26.0,00.0,35.5,28.5,22.9,0000.0,0008.68,0004.62,0003.65
2022-05-09 11:27:00,,0809.8,5.00,0.00,26.6,25.9,00.0,35.5,28.5,22.9,0000.0,0008.74,0004.66,0003.68
2022-05-09 11:28:00,,0809.9,4.99,0.00,26.6,26.0,00.0,35.5,28.5,22.8,0000.0,0008.75,0004.68,0003.70
2022-05-09 11:29:00,,0809.9,5.01,0.00,26.6,26.0,00.0,35.5,28.5,22.8,0000.0,0008.91,0004.74,0003.73
2022-05-09 11:30:00,,0810.0,5.01,0.00,26.6,26.0,00.0,35.5,28.5,22.8,0000.0,0008.94,0004.75,0003.76
2022-05-09 11:31:00,,0810.0,5.01,0.00,26.6,26.0,00.0,35.5,28.5,22.8,0000.0,0009.23,0004.74,0003.77
2022-05-09 11:32:00,,0810.0,5.00,0.00,26.6,26.0,00.0,35.5,28.5,22.8,0000.0,0009.36,0004.72,0003.79
2022-05-09 11:33:00,,0810.2,4.99,0.00,26.7,26.0,00.0,35.5,28.6,22.8,0000.0,0009.39,0004.74,0003.80
2022-05-09 11:34:00,,0810.2,5.00,0.00,26.7,26.1,00.0,35.6,28.6,22.8,0000.0,0009.44,0004.74,0003.81
2022-05-09 11:35:00,,0810.2,5.01,0.00,26.7,26.1,00.0,35.6,28.6,22.8,0000.0,0009.61,0004.78,0003.84
2022-05-09 11:36:00,,0810.2,5.00,0.00,26.7,26.1,00.0,35.6,28.6,22.9,0000.0,0009.61,0004.82,0003.85
2022-05-09 11:37:00,,0810.1,4.99,0.00,26.7,26.1,00.0,35.6,28.6,22.9,0000.0,0009.67,0004.89,0003.87
2022-05-09 11:38:00,,0810.0,4.99,0.00,26.7,26.1,00.0,35.6,28.6,22.9,0000.0,0009.64,0004.90,0003.87
2022-05-09 11:39:00,,0810.1,5.01,0.00,26.7,26.1,00.0,35.6,28.6,23.0,0000.0,0009.68,0004.91,0003.87
2022-05-09 11:40:00,,0810.0,5.00,0.00,26.7,26.0,00.0,35.6,28.6,23.0,0000.0,0009.57,0004.89,0003.87
2022-05-09 11:41:00,,0810.0,5.00,0.00,26.7,26.0,00.0,35.6,28.6,23.1,0000.0,0009.79,0004.91,0003.87
2022-05-09 11:42:00,,0810.0,4.99,0.00,26.7,26.1,00.0,35.6,28.6,23.0,0000.0,0010.40,0004.95,0003.88
2022-05-09 11:43:00,,0810.1,5.00,0.00,26.7,26.1,00.0,35.6,28.6,23.0,0000.0,0010.52,0004.98,0003.88
2022-05-09 11:44:00,,0810.1,5.00,0.00,26.7,26.1,00.0,35.6,28.6,23.0,0000.0,0010.69,0005.01,0003.89
2022-05-09 11:45:00,,0810.2,5.00,0.00,26.7,26.1,00.0,35.6,28.6,22.9,0000.0,0010.74,0005.04,0003.89
2022-05-09 11:46:00,,0810.2,5.00,0.00,26.8,26.1,00.0,35.6,28.7,22.9,0000.0,0010.65,0005.03,0003.90
2022-05-09 11:47:00,,0810.2,5.01,0.00,26.8,26.1,00.0,35.6,28.7,22.9,0000.0,0010.61,0004.99,0003.90
2022-05-09 11:48:00,,0810.3,4.99,0.00,26.8,26.2,00.0,35.7,28.7,22.8,0000.0,0010.53,0004.95,0003.90
2022-05-09 11:49:00,,0810.3,5.00,0.00,26.8,26.2,00.0,35.7,28.7,22.8,0000.0,0010.57,0004.97,0003.91
2022-05-09 11:50:00,,0810.3,5.00,0.00,26.8,26.2,00.0,35.7,28.8,22.9,0000.0,0010.51,0004.96,0003.93
2022-05-09 11:51:00,,0810.3,5.00,0.00,26.8,26.2,00.0,35.7,28.8,22.9,0000.0,0010.57,0004.99,0003.93
2022-05-09 11:52:00,,0810.4,5.00,0.00,26.9,26.2,00.0,35.7,28.8,22.9,0000.0,0010.35,0004.95,0003.92
2022-05-09 11:53:00,,0810.4,5.01,0.00,26.9,26.2,00.0,35.7,28.8,22.9,0000.0,0009.49,0004.94,0003.93
2022-05-09 11:54:00,,0810.2,5.00,0.00,26.9,26.2,00.0,35.7,28.8,22.9,0000.0,0009.01,0004.92,0003.94
2022-05-09 11:55:00,,0810.2,5.00,0.00,26.9,26.2,00.0,35.7,28.8,23.0,0000.0,0008.81,0004.87,0003.94
2022-05-09 11:56:00,,0810.2,5.00,0.00,26.9,26.2,00.0,35.7,28.8,23.0,0000.0,0008.75,0004.87,0003.94
2022-05-09 11:57:00,,0810.3,5.01,0.00,26.9,26.3,00.0,35.8,28.8,22.9,0000.0,0008.69,0004.88,0003.95
2022-05-09 11:58:00,,0810.3,5.00,0.00,26.9,26.3,00.0,35.8,28.8,22.9,0000.0,0009.22,0004.89,0003.96
2022-05-09 11:59:00,,0810.2,5.00,0.00,26.9,26.3,00.0,35.8,28.8,22.9,0000.0,0009.22,0004.90,0003.97
